Epoch,demod_status_bits,ebno,lock_status,signal_level,viterbi_ber
1663524933,,14.0,0x00c000,-38.3,
1663524934,C;S;V;F,14.3,0x00c000,-37.7,0.00e-0
1663524935,C;S;V;F,,0x00c000,-38.1,0.00e-0
1663524936,C;S;V;F,13.7,0x00c000,,0.00e-0
1663524937,C;S;V;F,13.8,0x00c000,-38.5,
1663524938,,,,,0.00e-0
1663524939,,12.9,0x00c000,-38.9,
1663524940,C;S;V;F,,0x00c000,-37.4,0.00e-0
1663524941,C;S;V;F,14.7,0x00c000,,0.00e-0
1663524942,C;S;V;F,13.8,0x00c000,-38.3,0.00e-0
1663524943,C;S;V;F,14.1,0x00c000,-38.0,0.00e-0
1663524944,C;S;V;F,14.4,0x00c000,-37.8,0.00e-0
1663524945,C;S;V;F,14.3,0x00c000,-37.8,0.00e-0
1663524946,C;S;V;F,14.3,0x00c000,-37.8,0.00e-0
1663524947,C;S;V;F,14.2,0x00c000,-38.3,0.00e-0
1663524948,C;S;V;F,13.7,0x00c000,-38.1,
1663524949,,14.4,0x00c000,-37.5,0.00e-0
1663524950,C;S;V;F,14.7,0x00c000,-38.2,0.00e-0
1663524951,C;S;V;F,14.8,0x00c000,-38.3,0.00e-0
1663524952,C;S;V;F,,0x00c000,,0.00e-0
1663524953,C;S;V;F,14.6,0x00c000,-37.5,0.00e-0
1663524954,C;S;V;F,14.9,0x00c000,-37.5,0.00e-0
1663524955,C;S;V;F,14.4,0x00c000,-37.9,0.00e-0
1663524956,C;S;V;F,14.5,0x00c000,-37.9,0.00e-0
1663524957,C;S;V;F,14.3,0x00c000,-37.8,0.00e-0
1663524958,C;S;V;F,14.8,0x00c000,-37.4,0.00e-0
1663524959,C;S;V;F,14.9,0x00c000,-37.2,
1663524960,C;S;V;F,15.1,0x00c000,-37.4,0.00e-0
1663524961,,14.3,0x00c000,-38.3,0.00e-0
1663524962,C;S;V;F,14.5,0x00c000,-37.3,0.00e-0
1663524963,C;S;V;F,15.0,0x00c000,-37.6,0.00e-0
1663524964,C;S;V;F,14.7,0x00c000,-37.6,0.00e-0
1663524965,C;S;V;F,,0x00c000,-37.4,0.00e-0
1663524966,C;S;V;F,14.7,0x00c000,,0.00e-0
1663524967,C;S;V;F,14.4,0x00c000,-37.8,0.00e-0
1663524968,C;S;V;F,14.7,0x00c000,-37.8,0.00e-0
1663524969,C;S;V;F,15.0,0x00c000,-37.4,0.00e-0
1663524970,C;S;V;F,15.0,0x00c000,-37.6,0.00e-0
1663524971,C;S;V;F,15.4,0x00c000,-37.0,0.00e-0
1663524972,C;S;V;F,14.8,0x00c000,-37.7,0.00e-0
1663524973,C;S;V;F,14.9,0x00c000,-37.6,0.00e-0
1663524974,C;S;V;F,15.1,0x00c000,-37.2,
1663524975,,15.2,0x00c000,-37.1,0.00e-0
1663524976,C;S;V;F,15.0,0x00c000,-37.6,0.00e-0
1663524977,C;S;V;F,,0x00c000,-37.3,0.00e-0
1663524978,C;S;V;F,15.0,0x00c000,,0.00e-0
1663524979,C;S;V;F,15.4,0x00c000,-37.0,0.00e-0
1663524980,C;S;V;F,15.3,0x00c000,-37.2,0.00e-0
1663524981,C;S;V;F,16.1,0x00c000,-36.3,0.00e-0
1663524982,C;S;V;F,15.2,0x00c000,-37.5,0.00e-0
1663524983,C;S;V;F,15.4,0x00c000,-37.0,0.00e-0
1663524984,C;S;V;F,15.0,0x00c000,-37.6,0.00e-0
1663524985,C;S;V;F,15.0,0x00c000,-37.0,0.00e-0
1663524986,C;S;V;F,15.7,0x00c000,-36.9,
1663524987,C;S;V;F,15.3,0x00c000,-37.1,0.00e-0
1663524988,,15.8,0x00c000,-36.5,0.00e-0
1663524989,C;S;V;F,15.7,0x00c000,-36.7,0.00e-0
1663524990,C;S;V;F,15.1,0x00c000,-37.3,0.00e-0
1663524991,C;S;V;F,15.6,0x00c000,-37.0,0.00e-0
1663524992,C;S;V;F,,0x00c000,-36.5,0.00e-0
1663524993,C;S;V;F,16.1,0x00c000,,0.00e-0
1663524994,C;S;V;F,15.4,0x00c000,-37.0,0.00e-0
1663524995,C;S;V;F,15.9,0x00c000,-36.5,0.00e-0
1663524996,C;S;V;F,16.0,0x00c000,-36.4,0.00e-0
1663524997,C;S;V;F,15.3,0x00c000,-37.1,0.00e-0
1663524998,C;S;V;F,15.7,0x00c000,-36.6,0.00e-0
1663524999,C;S;V;F,16.0,0x00c000,-36.4,0.00e-0
1663525000,C;S;V;F,15.7,0x00c000,-36.7,0.00e-0
1663525002,C;S;V;F,16.3,0x00c000,-36.3,0.00e-0
1663525003,,16.1,0x00c000,-36.3,
1663525004,C;S;V;F,,0x00c000,-36.3,0.00e-0
1663525005,C;S;V;F,16.1,0x00c000,,0.00e-0
1663525006,C;S;V;F,16.5,0x00c000,-36.4,0.00e-0
1663525007,C;S;V;F,16.2,0x00c000,-36.1,0.00e-0
1663525008,C;S;V;F,16.1,0x00c000,-36.5,0.00e-0
1663525009,C;S;V;F,16.2,0x00c000,-36.3,0.00e-0
1663525010,C;S;V;F,16.3,0x00c000,-36.3,0.00e-0
1663525011,C;S;V;F,16.1,0x00c000,-36.4,0.00e-0
1663525012,C;S;V;F,16.3,0x00c000,-36.2,0.00e-0
1663525013,C;S;V;F,16.5,0x00c000,-36.2,0.00e-0
1663525014,C;S;V;F,16.2,0x00c000,-36.4,0.00e-0
1663525015,C;S;V;F,16.5,0x00c000,-36.0,0.00e-0
1663525016,C;S;V;F,16.6,0x00c000,-36.0,
1663525017,C;S;V;F,16.3,0x00c000,-36.1,0.00e-0
1663525018,,16.8,0x00c000,-35.8,0.00e-0
1663525019,C;S;V;F,16.5,0x00c000,-36.2,0.00e-0
1663525020,C;S;V;F,16.4,0x00c000,-36.1,0.00e-0
1663525021,C;S;V;F,16.7,0x00c000,-36.0,0.00e-0
1663525022,C;S;V;F,,0x00c000,-35.8,0.00e-0
1663525023,C;S;V;F,16.7,0x00c000,,0.00e-0
1663525024,C;S;V;F,16.5,0x00c000,-35.9,0.00e-0
1663525025,C;S;V;F,16.7,0x00c000,-35.8,0.00e-0
1663525026,C;S;V;F,16.3,0x00c000,-36.3,0.00e-0
1663525027,C;S;V;F,16.3,0x00c000,-35.8,0.00e-0
1663525028,C;S;V;F,16.6,0x00c000,-36.1,0.00e-0
1663525029,C;S;V;F,16.3,0x00c000,-36.0,0.00e-0
1663525030,C;S;V;F,16.6,0x00c000,-36.2,0.00e-0
1663525031,C;S;V;F,16.5,0x00c000,-35.9,0.00e-0
1663525032,C;S;V;F,16.7,0x00c000,-35.9,
1663525033,,16.7,0x00c000,-35.8,0.00e-0
1663525034,C;S;V;F,16.8,0x00c000,-36.0,0.00e-0
1663525035,C;S;V;F,16.5,0x00c000,-36.0,0.00e-0
1663525036,C;S;V;F,,0x00c000,,0.00e-0
1663525037,C;S;V;F,17.0,0x00c000,-35.8,0.00e-0
1663525038,C;S;V;F,16.7,0x00c000,-35.9,0.00e-0
1663525039,C;S;V;F,16.7,0x00c000,-36.0,0.00e-0
1663525040,C;S;V;F,16.6,0x00c000,-35.9,0.00e-0
1663525041,C;S;V;F,16.6,0x00c000,-35.7,0.00e-0
1663525042,C;S;V;F,16.7,0x00c000,-35.9,0.00e-0
1663525043,C;S;V;F,16.6,0x00c000,-35.8,0.00e-0
1663525044,C;S;V;F,16.9,0x00c000,-36.0,0.00e-0
1663525045,C;S;V;F,16.7,0x00c000,-35.8,0.00e-0
1663525046,,16.8,0x00c000,-36.0,
1663525047,C;S;V;F,16.9,0x00c000,-35.9,0.00e-0
1663525048,C;S;V;F,,0x00c000,-35.9,0.00e-0
1663525049,C;S;V;F,16.7,0x00c000,,0.00e-0
1663525050,C;S;V;F,16.8,0x00c000,-35.8,0.00e-0
1663525051,C;S;V;F,16.9,0x00c000,-35.7,0.00e-0
1663525052,C;S;V;F,16.4,0x00c000,-36.1,0.00e-0
1663525053,C;S;V;F,16.7,0x00c000,-35.6,0.00e-0
1663525054,C;S;V;F,16.6,0x00c000,-36.1,0.00e-0
1663525055,C;S;V;F,16.8,0x00c000,-35.8,0.00e-0
1663525056,C;S;V;F,16.9,0x00c000,-35.8,0.00e-0
1663525057,C;S;V;F,16.9,0x00c000,-36.0,
1663525058,,16.7,0x00c000,-36.0,0.00e-0
1663525059,C;S;V;F,16.7,0x00c000,-35.8,0.00e-0
1663525060,C;S;V;F,16.8,0x00c000,-35.7,0.00e-0
1663525061,C;S;V;F,,0x00c000,-36.0,0.00e-0
1663525062,C;S;V;F,16.7,0x00c000,-35.7,0.00e-0
1663525063,C;S;V;F,16.8,0x00c000,,0.00e-0
1663525064,C;S;V;F,17.0,0x00c000,-36.0,0.00e-0
1663525066,C;S;V;F,16.5,0x00c000,-35.9,0.00e-0
1663525067,C;S;V;F,16.6,0x00c000,-35.9,0.00e-0
1663525068,C;S;V;F,16.7,0x00c000,-36.3,
1663525069,,16.5,0x00c000,-36.4,0.00e-0
1663525070,C;S;V;F,16.8,0x00c000,-36.1,0.00e-0
1663525071,C;S;V;F,16.6,0x00c000,-36.2,0.00e-0
1663525072,C;S;V;F,,0x00c000,-36.3,0.00e-0
1663525073,C;S;V;F,16.6,0x00c000,-36.2,0.00e-0
1663525074,C;S;V;F,16.6,0x00c000,,0.00e-0
1663525075,C;S;V;F,16.3,0x00c000,-36.3,0.00e-0
1663525076,C;S;V;F,16.5,0x00c000,-36.5,0.00e-0
1663525077,C;S;V;F,16.4,0x00c000,-36.3,0.00e-0
1663525078,C;S;V;F,16.6,0x00c000,-36.3,0.00e-0
1663525079,C;S;V;F,16.3,0x00c000,-36.4,0.00e-0
1663525080,C;S;V;F,16.2,0x00c000,-36.4,0.00e-0
1663525081,C;S;V;F,16.3,0x00c000,-36.3,
1663525082,,16.3,0x00c000,-36.5,0.00e-0
1663525083,C;S;V;F,16.1,0x00c000,-36.4,0.00e-0
1663525084,C;S;V;F,16.4,0x00c000,-36.6,0.00e-0
1663525085,C;S;V;F,,0x00c000,-37.0,0.00e-0
1663525086,C;S;V;F,16.1,0x00c000,-36.6,0.00e-0
1663525087,C;S;V;F,16.1,0x00c000,-36.9,0.00e-0
1663525088,C;S;V;F,16.3,0x00c000,-36.9,0.00e-0
1663525089,C;S;V;F,16.1,0x00c000,,0.00e-0
1663525090,C;S;V;F,16.0,0x00c000,-36.8,0.00e-0
1663525091,C;S;V;F,15.9,0x00c000,-36.9,0.00e-0
1663525092,C;S;V;F,15.9,0x00c000,-37.1,0.00e-0
1663525093,C;S;V;F,15.6,0x00c000,-37.2,0.00e-0
1663525094,C;S;V;F,15.7,0x00c000,-37.2,0.00e-0
1663525095,C;S;V;F,15.8,0x00c000,-37.2,
1663525096,,15.9,0x00c000,-37.2,0.00e-0
1663525097,C;S;V;F,15.9,0x00c000,-37.2,0.00e-0
1663525098,C;S;V;F,,0x00c000,-37.1,0.00e-0
1663525099,C;S;V;F,15.8,0x00c000,-37.1,0.00e-0
1663525100,C;S;V;F,15.8,0x00c000,-37.2,0.00e-0
1663525101,C;S;V;F,15.7,0x00c000,,0.00e-0
1663525102,C;S;V;F,15.8,0x00c000,-37.1,0.00e-0
1663525103,C;S;V;F,15.6,0x00c000,-37.2,0.00e-0
1663525104,C;S;V;F,15.8,0x00c000,-37.2,0.00e-0
1663525105,C;S;V;F,15.5,0x00c000,-37.2,0.00e-0
1663525106,C;S;V;F,15.7,0x00c000,-37.2,0.00e-0
1663525107,C;S;V;F,15.7,0x00c000,-37.2,0.00e-0
1663525108,C;S;V;F,15.7,0x00c000,-37.2,0.00e-0
1663525109,C;S;V;F,15.7,0x00c000,-37.2,
1663525110,,15.8,0x00c000,-37.0,0.00e-0
1663525111,C;S;V;F,15.6,0x00c000,-37.5,0.00e-0
1663525112,C;S;V;F,,0x00c000,-37.4,0.00e-0
1663525113,C;S;V;F,15.6,0x00c000,-37.5,0.00e-0
1663525114,C;S;V;F,15.6,0x00c000,,0.00e-0
1663525115,C;S;V;F,15.6,0x00c000,-37.6,0.00e-0
1663525116,C;S;V;F,15.8,0x00c000,-37.5,0.00e-0
1663525117,C;S;V;F,15.7,0x00c000,-37.5,0.00e-0
1663525118,C;S;V;F,15.5,0x00c000,-37.5,0.00e-0
1663525119,C;S;V;F,15.6,0x00c000,-37.3,0.00e-0
1663525120,C;S;V;F,15.7,0x00c000,-37.2,0.00e-0
1663525121,C;S;V;F,15.7,0x00c000,-37.2,0.00e-0
1663525122,C;S;V;F,15.7,0x00c000,-37.5,0.00e-0
1663525123,C;S;V;F,15.8,0x00c000,-37.4,0.00e-0
1663525124,C;S;V;F,15.6,0x00c000,-37.5,
1663525125,C;S;V;F,15.6,0x00c000,-37.5,0.00e-0
1663525126,,15.5,0x00c000,-37.7,0.00e-0
1663525127,C;S;V;F,,,,0.00e-0
1663525129,C;S;V;F,15.8,0x00c000,-37.2,0.00e-0
1663525132,,15.8,0x00c000,-37.2,
1663525133,C;S;V;F,15.9,0x00c000,-37.1,0.00e-0
1663525134,C;S;V;F,15.7,0x00c000,-37.4,0.00e-0
1663525135,C;S;V;F,,0x00c000,,0.00e-0
1663525136,C;S;V;F,15.3,0x00c000,-37.5,0.00e-0
1663525137,C;S;V;F,15.7,0x00c000,-37.5,0.00e-0
1663525138,C;S;V;F,15.6,0x00c000,-37.6,0.00e-0
1663525139,C;S;V;F,15.5,0x00c000,-37.7,0.00e-0
1663525140,C;S;V;F,15.7,0x00c000,-37.4,0.00e-0
1663525141,C;S;V;F,15.8,0x00c000,-37.3,0.00e-0
1663525142,C;S;V;F,15.8,0x00c000,-37.3,0.00e-0
1663525143,C;S;V;F,15.9,0x00c000,-37.2,0.00e-0
1663525144,C;S;V;F,16.1,0x00c000,-37.1,0.00e-0
1663525145,C;S;V;F,16.1,0x00c000,-37.1,0.00e-0
1663525146,,16.0,0x00c000,-37.0,
1663525147,C;S;V;F,16.0,0x00c000,-37.1,0.00e-0
1663525148,C;S;V;F,16.1,0x00c000,-36.8,0.00e-0
1663525149,C;S;V;F,16.1,0x00c000,-36.8,0.00e-0
1663525150,C;S;V;F,,0x00c000,-36.9,0.00e-0
1663525151,C;S;V;F,15.9,0x00c000,,0.00e-0
1663525152,C;S;V;F,16.1,0x00c000,-37.0,0.00e-0
1663525153,C;S;V;F,15.8,0x00c000,-37.2,0.00e-0
1663525154,C;S;V;F,15.7,0x00c000,-37.5,0.00e-0
1663525155,C;S;V;F,15.5,0x00c000,-37.7,0.00e-0
1663525156,C;S;V;F,15.5,0x00c000,-37.7,0.00e-0
1663525157,C;S;V;F,15.4,0x00c000,-37.9,0.00e-0
1663525158,C;S;V;F,15.3,0x00c000,-37.9,0.00e-0
1663525159,C;S;V;F,15.4,0x00c000,-37.9,0.00e-0
1663525160,C;S;V;F,14.8,0x00c000,-38.1,0.00e-0
1663525161,C;S;V;F,14.9,0x00c000,-38.4,
1663525162,,14.7,0x00c000,-38.6,0.00e-0
1663525163,C;S;V;F,14.8,0x00c000,-38.5,0.00e-0
1663525164,C;S;V;F,14.7,0x00c000,-38.7,0.00e-0
1663525165,C;S;V;F,,0x00c000,-38.6,0.00e-0
1663525166,C;S;V;F,14.7,0x00c000,,0.00e-0
1663525167,C;S;V;F,14.5,0x00c000,-38.7,0.00e-0
1663525168,C;S;V;F,14.7,0x00c000,-38.7,0.00e-0
1663525169,C;S;V;F,14.6,0x00c000,-38.5,0.00e-0
1663525170,C;S;V;F,14.6,0x00c000,-38.7,0.00e-0
1663525171,C;S;V;F,14.6,0x00c000,-38.8,0.00e-0
1663525172,C;S;V;F,14.5,0x00c000,-38.7,0.00e-0
1663525173,C;S;V;F,14.4,0x00c000,-38.8,0.00e-0
1663525174,C;S;V;F,14.7,0x00c000,-38.4,0.00e-0
1663525175,,14.6,0x00c000,-38.7,
1663525176,C;S;V;F,14.5,0x00c000,-38.7,0.00e-0
1663525177,C;S;V;F,14.4,0x00c000,-38.8,0.00e-0
1663525178,C;S;V;F,14.6,0x00c000,-38.7,0.00e-0
1663525179,C;S;V;F,14.7,0x00c000,-38.5,0.00e-0
1663525180,C;S;V;F,,0x00c000,-38.3,0.00e-0
1663525181,C;S;V;F,14.8,0x00c000,-38.2,0.00e-0
1663525182,C;S;V;F,15.0,0x00c000,,0.00e-0
1663525183,C;S;V;F,14.8,0x00c000,-38.4,0.00e-0
1663525184,C;S;V;F,15.0,0x00c000,-38.4,0.00e-0
1663525185,C;S;V;F,14.8,0x00c000,-38.4,0.00e-0
1663525186,C;S;V;F,15.1,0x00c000,-38.1,0.00e-0
1663525187,C;S;V;F,15.1,0x00c000,-38.0,0.00e-0
1663525188,C;S;V;F,15.1,0x00c000,-38.3,0.00e-0
1663525189,C;S;V;F,15.0,0x00c000,-38.3,0.00e-0
1663525191,,15.2,0x00c000,-38.0,
1663525192,C;S;V;F,,0x00c000,-37.6,0.00e-0
1663525193,C;S;V;F,15.4,0x00c000,-38.0,0.00e-0
1663525194,C;S;V;F,15.2,0x00c000,,0.00e-0
1663525195,C;S;V;F,15.3,0x00c000,-38.0,0.00e-0
1663525196,C;S;V;F,14.9,0x00c000,-38.1,0.00e-0
1663525197,C;S;V;F,15.0,0x00c000,-38.2,0.00e-0
1663525198,C;S;V;F,15.0,0x00c000,-38.0,0.00e-0
1663525199,C;S;V;F,15.0,0x00c000,-38.0,0.00e-0
1663525200,C;S;V;F,15.0,0x00c000,-38.1,0.00e-0
1663525201,C;S;V;F,14.8,0x00c000,-38.6,0.00e-0
1663525202,C;S;V;F,14.6,0x00c000,-38.8,
1663525203,,14.2,0x00c000,-38.8,0.00e-0
1663525204,C;S;V;F,14.5,0x00c000,-38.6,0.00e-0
1663525205,C;S;V;F,,0x00c000,-38.1,0.00e-0
1663525206,C;S;V;F,14.8,0x00c000,-37.9,0.00e-0
1663525207,C;S;V;F,15.2,0x00c000,,0.00e-0
1663525208,C;S;V;F,15.3,0x00c000,-38.0,0.00e-0
1663525209,C;S;V;F,15.2,0x00c000,-38.3,0.00e-0
1663525210,C;S;V;F,15.2,0x00c000,-38.6,0.00e-0
1663525211,C;S;V;F,14.5,0x00c000,-39.0,0.00e-0
1663525212,C;S;V;F,13.6,0x00c000,-39.5,0.00e-0
1663525213,C;S;V;F,13.6,0x00c000,-39.6,0.00e-0
1663525214,C;S;V;F,13.8,0x00c000,-39.3,0.00e-0
1663525215,C;S;V;F,14.4,0x00c000,-39.0,
1663525216,,14.5,0x00c000,-38.7,0.00e-0
1663525217,C;S;V;F,14.5,0x00c000,-38.9,0.00e-0
1663525218,C;S;V;F,,0x00c000,-39.5,0.00e-0
1663525219,C;S;V;F,13.8,0x00c000,,0.00e-0
1663525220,C;S;V;F,13.9,0x00c000,-39.5,0.00e-0
1663525221,C;S;V;F,13.8,0x00c000,-39.3,0.00e-0
1663525222,C;S;V;F,13.9,0x00c000,-39.2,0.00e-0
1663525223,C;S;V;F,14.1,0x00c000,-38.8,0.00e-0
1663525224,C;S;V;F,14.4,0x00c000,-38.7,0.00e-0
1663525225,C;S;V;F,14.6,0x00c000,-38.6,0.00e-0
1663525226,C;S;V;F,14.6,0x00c000,-38.7,0.00e-0
1663525227,C;S;V;F,14.8,0x00c000,-38.5,0.00e-0
1663525228,C;S;V;F,14.4,0x00c000,-39.2,0.00e-0
1663525229,C;S;V;F,14.1,0x00c000,-39.1,
1663525230,,14.2,0x00c000,-39.2,0.00e-0
1663525231,C;S;V;F,14.4,0x00c000,-38.8,0.00e-0
1663525232,C;S;V;F,14.7,0x00c000,-38.1,0.00e-0
1663525233,C;S;V;F,15.0,0x00c000,-37.6,0.00e-0
1663525234,C;S;V;F,15.7,0x00c000,-36.6,0.00e-0
1663525235,C;S;V;F,,0x00c000,-37.2,0.00e-0
1663525236,C;S;V;F,15.9,0x00c000,-37.4,0.00e-0
1663525237,C;S;V;F,15.6,0x00c000,,0.00e-0
1663525238,C;S;V;F,15.4,0x00c000,-37.4,0.00e-0
1663525239,C;S;V;F,15.6,0x00c000,-37.1,0.00e-0
1663525240,C;S;V;F,15.7,0x00c000,-37.3,0.00e-0
1663525241,C;S;V;F,15.5,0x00c000,-37.6,0.00e-0
1663525242,C;S;V;F,15.6,0x00c000,-37.9,0.00e-0
1663525243,C;S;V;F,16.0,0x00c000,-37.2,0.00e-0
1663525244,C;S;V;F,16.3,0x00c000,-36.4,0.00e-0
1663525245,C;S;V;F,15.4,0x00c000,-37.2,0.00e-0
1663525246,C;S;V;F,15.6,0x00c000,-37.9,
1663525247,,16.7,0x00c000,-36.1,0.00e-0
1663525248,C;S;V;F,16.5,0x00c000,-36.9,0.00e-0
1663525249,C;S;V;F,15.9,0x00c000,-37.4,0.00e-0
1663525250,C;S;V;F,15.5,0x00c000,-37.5,0.00e-0
1663525251,C;S;V;F,,0x00c000,-37.9,0.00e-0
1663525252,C;S;V;F,15.5,0x00c000,,0.00e-0
1663525254,,14.0,0x00c000,-38.6,
1663525255,C;S;V;F,,0x00c000,-38.3,0.00e-0
1663525256,C;S;V;F,14.9,0x00c000,,0.00e-0
1663525257,C;S;V;F,13.4,0x00c000,-39.7,0.00e-0
1663525258,C;S;V;F,14.9,0x00c000,-38.4,0.00e-0
1663525259,C;S;V;F,13.2,0x00c000,-39.2,0.00e-0
1663525260,,13.2,0x00c000,-40.1,
1663525261,C;S;V;F,14.4,0x00c000,-38.8,1.51e-7
1663525262,C;S;V;F,,0x00c000,-41.3,0.00e-0
1663525263,C;S;V;F,12.1,0x00c000,-39.5,6.06e-7
1663525264,C;S;V;F,12.6,0x00c000,-39.5,4.23e-6
1663525265,C;S;V;F,13.8,0x00c000,,1.66e-6
1663525266,C;S;V;F,12.8,0x00c000,-40.0,3.03e-7
1663525267,C;S;V;F,14.4,0x00c000,-38.9,0.00e-0
1663525268,C;S;V;F,13.1,0x00c000,-40.3,1.51e-7
1663525269,C;S;V;F,14.6,0x00c000,-37.7,1.51e-7
1663525270,C;S;V;F,15.7,0x00c000,-37.8,0.00e-0
1663525271,C;S;V;F,14.8,0x00c000,-38.5,0.00e-0
1663525272,C;S;V;F,15.6,0x00c000,-36.7,0.00e-0
1663525273,C;S;V;F,15.7,0x00c000,-37.3,0.00e-0
1663525274,C;S;V;F,16.2,0x00c000,-36.6,0.00e-0
1663525275,,17.0,0x00c000,-35.3,
1663525276,C;S;V;F,17.3,0x00c000,-35.5,0.00e-0
1663525277,C;S;V;F,18.0,0x00c000,-34.4,0.00e-0
1663525278,C;S;V;F,17.6,0x00c000,-34.9,0.00e-0
1663525279,C;S;V;F,17.8,0x00c000,-34.8,0.00e-0
1663525280,C;S;V;F,,0x00c000,-33.8,0.00e-0
1663525281,C;S;V;F,18.3,0x00c000,-34.0,0.00e-0
1663525282,C;S;V;F,18.0,0x00c000,-33.8,0.00e-0
1663525283,C;S;V;F,18.2,0x00c000,,0.00e-0
1663525284,C;S;V;F,18.5,0x00c000,-33.2,0.00e-0
1663525285,C;S;V;F,18.7,0x00c000,-33.2,0.00e-0
1663525286,C;S;V;F,18.7,0x00c000,-33.5,0.00e-0
1663525287,C;S;V;F,18.6,0x00c000,-33.5,0.00e-0
1663525288,C;S;V;F,18.6,0x00c000,-33.5,0.00e-0
1663525289,C;S;V;F,18.5,0x00c000,-33.7,0.00e-0
1663525290,C;S;V;F,18.7,0x00c000,-33.6,0.00e-0
1663525291,C;S;V;F,18.5,0x00c000,-33.7,0.00e-0
1663525292,,18.6,0x00c000,-33.4,
1663525293,C;S;V;F,18.5,0x00c000,-33.3,0.00e-0
1663525294,C;S;V;F,18.7,0x00c000,-34.0,0.00e-0
1663525295,C;S;V;F,18.5,0x00c000,-33.9,0.00e-0
1663525296,C;S;V;F,,0x00c000,-34.1,0.00e-0
1663525297,C;S;V;F,18.2,0x00c000,,0.00e-0
1663525298,C;S;V;F,18.4,0x00c000,-34.0,0.00e-0
1663525299,C;S;V;F,18.5,0x00c000,-33.8,0.00e-0
1663525300,C;S;V;F,18.3,0x00c000,-33.9,0.00e-0
1663525301,C;S;V;F,18.2,0x00c000,-34.2,0.00e-0
1663525302,C;S;V;F,18.0,0x00c000,-34.1,0.00e-0
1663525303,C;S;V;F,18.2,0x00c000,-34.2,0.00e-0
1663525304,C;S;V;F,18.2,0x00c000,-34.3,
1663525305,,18.3,0x00c000,-34.1,0.00e-0
1663525306,C;S;V;F,18.5,0x00c000,-33.8,0.00e-0
1663525307,C;S;V;F,18.4,0x00c000,-33.6,0.00e-0
1663525308,C;S;V;F,,0x00c000,-33.8,0.00e-0
1663525309,C;S;V;F,18.3,0x00c000,-33.6,0.00e-0
1663525310,C;S;V;F,18.3,0x00c000,,0.00e-0
1663525311,C;S;V;F,18.5,0x00c000,-33.7,0.00e-0
1663525312,C;S;V;F,18.4,0x00c000,-33.9,0.00e-0
1663525313,C;S;V;F,18.4,0x00c000,-33.9,0.00e-0
1663525314,C;S;V;F,18.4,0x00c000,-33.8,0.00e-0
1663525315,C;S;V;F,18.4,0x00c000,-33.6,0.00e-0
1663525317,,18.2,0x00c000,-34.3,
1663525318,C;S;V;F,18.1,0x00c000,-34.5,0.00e-0
1663525319,C;S;V;F,,0x00c000,-34.9,0.00e-0
1663525320,C;S;V;F,17.6,0x00c000,-35.2,0.00e-0
1663525321,C;S;V;F,17.6,0x00c000,-35.6,0.00e-0
1663525322,C;S;V;F,17.6,0x00c000,,0.00e-0
1663525323,C;S;V;F,17.0,0x00c000,-36.0,0.00e-0
1663525324,C;S;V;F,16.7,0x00c000,-36.3,0.00e-0
1663525325,C;S;V;F,16.2,0x00c000,-36.8,0.00e-0
1663525326,C;S;V;F,15.8,0x00c000,-37.1,0.00e-0
1663525327,C;S;V;F,15.8,0x00c000,-37.2,0.00e-0
1663525328,C;S;V;F,15.5,0x00c000,-37.9,0.00e-0
1663525329,C;S;V;F,15.3,0x00c000,-38.0,0.00e-0
1663525330,C;S;V;F,15.3,0x00c000,-38.3,0.00e-0
1663525331,C;S;V;F,15.1,0x00c000,-38.1,
1663525332,,15.0,0x00c000,-38.2,0.00e-0
1663525333,C;S;V;F,15.0,0x00c000,-38.5,0.00e-0
1663525334,C;S;V;F,,0x00c000,-38.3,0.00e-0
1663525335,C;S;V;F,15.1,0x00c000,,0.00e-0
1663525336,C;S;V;F,15.0,0x00c000,-38.1,0.00e-0
1663525337,C;S;V;F,15.2,0x00c000,-38.2,0.00e-0
1663525338,C;S;V;F,15.3,0x00c000,-38.1,0.00e-0
1663525339,C;S;V;F,15.2,0x00c000,-37.8,0.00e-0
1663525340,C;S;V;F,15.5,0x00c000,-37.7,0.00e-0
1663525341,C;S;V;F,15.5,0x00c000,-38.0,0.00e-0
1663525342,C;S;V;F,15.1,0x00c000,-38.3,0.00e-0
1663525343,,15.1,0x00c000,-38.2,
1663525344,C;S;V;F,15.4,0x00c000,-38.0,0.00e-0
1663525345,C;S;V;F,15.4,0x00c000,-37.7,0.00e-0
1663525346,C;S;V;F,,0x00c000,-37.9,0.00e-0
1663525347,C;S;V;F,15.2,0x00c000,-38.2,0.00e-0
1663525348,C;S;V;F,15.2,0x00c000,,0.00e-0
1663525349,C;S;V;F,14.9,0x00c000,-39.0,0.00e-0
1663525350,C;S;V;F,14.4,0x00c000,-39.4,0.00e-0
1663525351,C;S;V;F,13.8,0x00c000,-39.5,0.00e-0
1663525352,C;S;V;F,13.5,0x00c000,-39.6,0.00e-0
1663525353,C;S;V;F,13.7,0x00c000,-39.7,0.00e-0
1663525354,C;S;V;F,13.6,0x00c000,-39.6,
1663525355,,13.7,0x00c000,-39.3,0.00e-0
1663525356,C;S;V;F,14.0,0x00c000,-39.5,0.00e-0
1663525357,C;S;V;F,14.0,0x00c000,-39.4,0.00e-0
1663525358,C;S;V;F,,0x00c000,-39.5,0.00e-0
1663525359,C;S;V;F,14.0,0x00c000,,0.00e-0
1663525360,C;S;V;F,13.4,0x00c000,-39.9,0.00e-0
1663525361,C;S;V;F,13.4,0x00c000,-39.8,0.00e-0
1663525362,C;S;V;F,13.5,0x00c000,-39.6,0.00e-0
1663525363,C;S;V;F,14.5,0x00c000,-38.9,0.00e-0
1663525364,C;S;V;F,14.9,0x00c000,-38.5,0.00e-0
1663525365,C;S;V;F,14.6,0x00c000,-38.5,0.00e-0
1663525366,C;S;V;F,14.4,0x00c000,-39.1,
1663525367,,14.0,0x00c000,-39.2,0.00e-0
1663525368,C;S;V;F,14.3,0x00c000,-39.1,0.00e-0
1663525369,C;S;V;F,14.7,0x00c000,-38.4,0.00e-0
1663525370,C;S;V;F,,0x00c000,-38.3,0.00e-0
1663525371,C;S;V;F,15.1,0x00c000,-38.2,0.00e-0
1663525372,C;S;V;F,14.9,0x00c000,,0.00e-0
1663525373,C;S;V;F,14.9,0x00c000,-38.3,0.00e-0
1663525374,C;S;V;F,15.0,0x00c000,-38.7,0.00e-0
1663525375,C;S;V;F,14.8,0x00c000,-39.2,0.00e-0
1663525376,C;S;V;F,14.2,0x00c000,-39.5,0.00e-0
1663525377,C;S;V;F,13.9,0x00c000,-39.5,0.00e-0
1663525378,C;S;V;F,13.8,0x00c000,-39.6,0.00e-0
1663525380,,13.7,0x00c000,-39.9,
1663525381,C;S;V;F,13.6,0x00c000,-39.7,0.00e-0
1663525382,C;S;V;F,,0x00c000,-39.8,0.00e-0
1663525383,C;S;V;F,13.5,0x00c000,,0.00e-0
1663525384,C;S;V;F,13.0,0x00c000,-40.4,1.51e-7
1663525385,C;S;V;F,13.0,0x00c000,-40.3,1.51e-7
1663525386,C;S;V;F,13.1,0x00c000,-40.3,0.00e-0
1663525387,C;S;V;F,12.5,0x00c000,-41.0,3.03e-7
1663525388,C;S;V;F,12.1,0x00c000,-41.1,1.66e-6
1663525389,C;S;V;F,12.4,0x00c000,-40.8,2.26e-6
1663525390,C;S;V;F,12.8,0x00c000,-40.4,
1663525391,,13.0,0x00c000,-40.2,1.05e-6
1663525392,C;S;V;F,13.1,0x00c000,-40.0,3.03e-7
1663525393,C;S;V;F,13.4,0x00c000,-39.9,0.00e-0
1663525394,C;S;V;F,14.0,0x00c000,-39.5,0.00e-0
1663525395,C;S;V;F,,0x00c000,-39.8,0.00e-0
1663525396,C;S;V;F,13.4,0x00c000,,0.00e-0
1663525397,C;S;V;F,13.2,0x00c000,-40.0,0.00e-0
1663525398,C;S;V;F,13.5,0x00c000,-39.7,0.00e-0
1663525399,C;S;V;F,14.1,0x00c000,-39.2,0.00e-0
1663525400,C;S;V;F,14.1,0x00c000,-39.0,0.00e-0
1663525401,C;S;V;F,13.9,0x00c000,-39.4,0.00e-0
1663525402,C;S;V;F,14.1,0x00c000,-39.1,0.00e-0
1663525403,C;S;V;F,14.4,0x00c000,-38.6,0.00e-0
1663525404,C;S;V;F,14.8,0x00c000,-38.4,0.00e-0
1663525405,C;S;V;F,14.8,0x00c000,-38.7,
1663525406,,14.0,0x00c000,-39.0,0.00e-0
1663525407,C;S;V;F,14.0,0x00c000,-39.5,0.00e-0
1663525408,C;S;V;F,,0x00c000,-39.2,0.00e-0
1663525409,C;S;V;F,14.0,0x00c000,-38.8,0.00e-0
1663525410,C;S;V;F,14.3,0x00c000,,0.00e-0
1663525411,C;S;V;F,14.6,0x00c000,-38.7,0.00e-0
1663525412,C;S;V;F,14.8,0x00c000,-38.4,0.00e-0
1663525413,C;S;V;F,14.9,0x00c000,-38.4,0.00e-0
1663525414,C;S;V;F,14.8,0x00c000,-38.4,0.00e-0
1663525415,C;S;V;F,14.9,0x00c000,-38.8,0.00e-0
1663525416,,14.1,0x00c000,-39.2,
1663525417,C;S;V;F,13.8,0x00c000,-39.5,0.00e-0
1663525418,C;S;V;F,,0x00c000,-39.3,0.00e-0
1663525419,C;S;V;F,14.0,0x00c000,,0.00e-0
1663525420,C;S;V;F,14.0,0x00c000,-38.9,0.00e-0
1663525421,C;S;V;F,14.3,0x00c000,-38.9,0.00e-0
1663525422,C;S;V;F,14.4,0x00c000,-39.1,0.00e-0
1663525423,C;S;V;F,14.0,0x00c000,-39.2,0.00e-0
1663525424,C;S;V;F,14.1,0x00c000,-39.2,0.00e-0
1663525425,C;S;V;F,14.0,0x00c000,-38.8,0.00e-0
1663525426,C;S;V;F,14.5,0x00c000,-38.8,0.00e-0
1663525427,C;S;V;F,14.4,0x00c000,-38.8,
1663525428,,14.5,0x00c000,-38.8,0.00e-0
1663525429,C;S;V;F,14.7,0x00c000,-38.8,0.00e-0
1663525430,C;S;V;F,,0x00c000,-39.2,0.00e-0
1663525431,C;S;V;F,14.0,0x00c000,,0.00e-0
1663525432,C;S;V;F,13.9,0x00c000,-39.4,0.00e-0
1663525435,C;S;V;F,13.9,0x00c000,-39.4,
1663525436,,14.1,0x00c000,-39.3,0.00e-0
1663525437,C;S;V;F,14.2,0x00c000,-39.2,0.00e-0
1663525438,C;S;V;F,14.1,0x00c000,-39.2,0.00e-0
1663525439,C;S;V;F,,0x00c000,-39.6,0.00e-0
1663525440,C;S;V;F,14.0,0x00c000,-39.4,0.00e-0
1663525441,C;S;V;F,13.7,0x00c000,,0.00e-0
1663525443,C;S;V;F,14.3,0x00c000,-38.8,0.00e-0
1663525444,C;S;V;F,14.7,0x00c000,-38.3,
1663525445,,14.8,0x00c000,-38.0,0.00e-0
1663525446,C;S;V;F,15.0,0x00c000,-38.0,0.00e-0
1663525447,C;S;V;F,15.2,0x00c000,-37.9,0.00e-0
1663525448,C;S;V;F,15.2,0x00c000,-38.0,0.00e-0
1663525449,C;S;V;F,,0x00c000,-38.3,0.00e-0
1663525450,C;S;V;F,14.9,0x00c000,,0.00e-0
1663525451,C;S;V;F,15.0,0x00c000,-38.0,0.00e-0
1663525452,C;S;V;F,15.1,0x00c000,-38.0,0.00e-0
1663525453,C;S;V;F,15.4,0x00c000,-37.9,0.00e-0
1663525454,C;S;V;F,15.2,0x00c000,-37.8,0.00e-0
1663525455,C;S;V;F,15.7,0x00c000,-37.5,0.00e-0
1663525456,C;S;V;F,15.8,0x00c000,-37.2,0.00e-0
1663525457,C;S;V;F,15.7,0x00c000,-37.2,0.00e-0
1663525458,C;S;V;F,15.7,0x00c000,-37.3,0.00e-0
1663525459,C;S;V;F,15.6,0x00c000,-37.5,
1663525460,,15.7,0x00c000,-37.4,0.00e-0
1663525461,C;S;V;F,15.7,0x00c000,-37.6,0.00e-0
1663525462,C;S;V;F,,0x00c000,-37.6,0.00e-0
1663525463,C;S;V;F,15.4,0x00c000,-37.6,0.00e-0
1663525464,C;S;V;F,15.5,0x00c000,,0.00e-0
1663525465,C;S;V;F,15.7,0x00c000,-37.6,0.00e-0
1663525466,C;S;V;F,15.5,0x00c000,-37.4,0.00e-0
1663525467,C;S;V;F,15.8,0x00c000,-37.3,0.00e-0
1663525468,C;S;V;F,15.8,0x00c000,-37.1,0.00e-0
1663525469,C;S;V;F,16.1,0x00c000,-36.7,0.00e-0
1663525470,C;S;V;F,16.2,0x00c000,-36.6,0.00e-0
1663525471,C;S;V;F,16.2,0x00c000,-37.0,0.00e-0
1663525472,C;S;V;F,16.3,0x00c000,-36.5,0.00e-0
1663525473,C;S;V;F,16.0,0x00c000,-36.7,0.00e-0
1663525474,C;S;V;F,16.2,0x00c000,-36.7,0.00e-0
1663525475,C;S;V;F,16.3,0x00c000,-36.5,0.00e-0